Dades meteomassalio
Diari Summary for Maig 9, 2017 Units:  Metric    English   Both
« Previous Day
Next Day »
Diari Semanal Mensual Anual Personalitzat
  Maxima: Minima: Mijana:
Temperatura: -17.8 °C -13.1 °C -8.6 °C
Rosada: -17.8 °C -17.9 °C -13.8 °C
Humitat: Humidity % 35 % 55 %
Velocitat del vent: 0 km/h 0 km/h 12.4 km/h
Racha vent: 0 km/h - -
Vent:- - ESE
Pressio: 0 hPa 33981.9 hPa -
Pluja: 33.02 mm    
Historical Graphs
 
 
Tabular Data for Maig 9, 2017
Time Temperature Dew Point Pressure Wind Wind Speed Wind Gust Humidity Rainfall Rate (Hourly) solar Conditions
-17.8 °C -17.8 °C 0 hPa Calm     Humidity % 0 mm SolarRadiationWatts/m^2 W/m2 Conditions
00:03 -9.1 °C -17.7 °C 34337.4 hPa Calm     35 % 0 mm 0.0 W/m2 CLR
00:08 -9.2 °C -17.7 °C 34337.4 hPa Calm     35 % 0 mm 0.0 W/m2 CLR
00:13 -9.3 °C -17.8 °C 34337.4 hPa Calm     35 % 0 mm 0.0 W/m2 CLR
00:18 -9.3 °C -17.8 °C 34337.4 hPa Calm     35 % 0 mm 0.0 W/m2 CLR
00:23 -9.3 °C -17.4 °C 34337.4 hPa Calm     37 % 0 mm 0.0 W/m2 CLR
00:28 -9.5 °C -17.4 °C 34337.4 hPa Calm     38 % 0 mm 0.0 W/m2 CLR
00:33 -9.7 °C -17.4 °C 34337.4 hPa Calm     39 % 0 mm 0.0 W/m2 CLR
00:38 -9.8 °C -17.4 °C 34337.4 hPa Calm     39 % 0 mm 0.0 W/m2 CLR
00:43 -9.9 °C -17.6 °C 34337.4 hPa Calm     39 % 0 mm 0.0 W/m2 CLR
00:48 -10.1 °C -17.3 °C 34337.4 hPa Calm     41 % 0 mm 0.0 W/m2 CLR
00:53 -10.2 °C -17.4 °C 34337.4 hPa Calm     41 % 0 mm 0.0 W/m2 CLR
00:58 -10.4 °C -17.6 °C 34337.4 hPa Calm     41 % 0 mm 0.0 W/m2 CLR
01:03 -10.5 °C -17.6 °C 34337.4 hPa Calm     42 % 0 mm 0.0 W/m2 CLR
01:08 -10.6 °C -17.4 °C 34337.4 hPa Calm     43 % 0 mm 0.0 W/m2 CLR
01:13 -10.7 °C -17.5 °C 34337.4 hPa Calm     43 % 0 mm 0.0 W/m2 CLR
01:18 -10.8 °C -17.8 °C 34337.4 hPa Calm     42 % 0 mm 0.0 W/m2 CLR
01:23 -10.8 °C -17.4 °C 34337.4 hPa Calm     44 % 0 mm 0.0 W/m2 CLR
01:28 -10.9 °C -17.7 °C 34337.4 hPa Calm     43 % 0 mm 0.0 W/m2 CLR
01:33 -10.8 °C -17.8 °C 34337.4 hPa Calm     42 % 0 mm 0.0 W/m2 CLR
01:38 -10.8 °C -17.4 °C 34337.4 hPa Calm     44 % 0 mm 0.0 W/m2 CLR
01:43 -10.9 °C -17.5 °C 34337.4 hPa Calm     44 % 0 mm 0.0 W/m2 CLR
01:48 -11 °C -17.6 °C 34337.4 hPa Calm     44 % 0 mm 0.0 W/m2 CLR
01:53 -11.1 °C -17.6 °C 34337.4 hPa Calm     45 % 0 mm 0.0 W/m2 CLR
01:58 -11.2 °C -17.7 °C 34337.4 hPa Calm     45 % 0 mm 0.0 W/m2 CLR
02:03 -11.3 °C -17.7 °C 34337.4 hPa Calm     45 % 0 mm 0.0 W/m2 CLR
02:08 -11.3 °C -17.8 °C 34337.4 hPa Calm     45 % 0 mm 0.0 W/m2 CLR
02:13 -11.3 °C -17.8 °C 34337.4 hPa Calm     45 % 0 mm 0.0 W/m2 CLR
02:18 -11.4 °C -17.7 °C 34337.4 hPa Calm     46 % 0 mm 0.0 W/m2 CLR
02:23 -11.5 °C -17.7 °C 34327.3 hPa Calm     46 % 0 mm 0.0 W/m2 CLR
02:28 -11.6 °C -17.6 °C 34327.3 hPa Calm     47 % 0 mm 0.0 W/m2 CLR
02:33 -11.6 °C -17.7 °C 34327.3 hPa Calm     47 % 0 mm 0.0 W/m2 CLR
02:38 -11.7 °C -17.7 °C 34327.3 hPa Calm     47 % 0 mm 0.0 W/m2 CLR
02:43 -11.8 °C -17.8 °C 34327.3 hPa Calm     47 % 0 mm 0.0 W/m2 CLR
02:48 -11.8 °C -17.7 °C 34327.3 hPa Calm     48 % 0 mm 0.0 W/m2 CLR
02:53 -11.9 °C -17.6 °C 34327.3 hPa Calm     49 % 0 mm 0.0 W/m2 CLR
02:58 -11.9 °C -17.7 °C 34327.3 hPa Calm     49 % 0 mm 0.0 W/m2 CLR
03:03 -12.1 °C -17.7 °C 34327.3 hPa Calm     49 % 0 mm 0.0 W/m2 CLR
03:08 -12.1 °C -17.7 °C 34327.3 hPa Calm     49 % 0 mm 0.0 W/m2 CLR
03:13 -12.1 °C -17.9 °C 34327.3 hPa Calm     48 % 0 mm 0.0 W/m2 CLR
03:18 -12.1 °C -17.9 °C 34327.3 hPa Calm     48 % 0 mm 0.0 W/m2 CLR
03:23 -12.1 °C -17.8 °C 34327.3 hPa Calm     49 % 0 mm 0.0 W/m2 CLR
03:28 -12.1 °C -17.7 °C 34327.3 hPa Calm     50 % 0 mm 0.0 W/m2 CLR
03:33 -12.2 °C -17.7 °C 34313.7 hPa Calm     50 % 0 mm 0.0 W/m2 CLR
03:38 -12.3 °C -17.7 °C 34313.7 hPa Calm     51 % 0 mm 0.0 W/m2 CLR
03:43 -12.4 °C -17.7 °C 34313.7 hPa Calm     51 % 0 mm 0.0 W/m2 CLR
03:48 -12.4 °C -17.8 °C 34313.7 hPa Calm     51 % 0 mm 0.0 W/m2 CLR
03:53 -12.4 °C -17.8 °C 34313.7 hPa Calm     51 % 0 mm 0.0 W/m2 CLR
03:58 -12.4 °C -17.8 °C 34303.6 hPa Calm     51 % 0 mm 0.0 W/m2 CLR
04:03 -12.4 °C -17.8 °C 34303.6 hPa Calm     51 % 0 mm 0.0 W/m2 CLR
04:09 -12.4 °C -17.8 °C 34303.6 hPa Calm     51 % 0 mm 0.0 W/m2 CLR
04:14 -12.4 °C -17.8 °C 34303.6 hPa Calm     51 % 0 mm 0.0 W/m2 CLR
04:19 -12.4 °C -17.7 °C 34303.6 hPa Calm     51 % 0 mm 0.0 W/m2 CLR
04:24 -12.4 °C -17.7 °C 34303.6 hPa Calm     51 % 0 mm 0.0 W/m2 CLR
04:28 -12.4 °C -17.6 °C 34303.6 hPa Calm     52 % 0 mm 0.0 W/m2 CLR
04:34 -12.5 °C -17.6 °C 34303.6 hPa Calm     53 % 0 mm 0.0 W/m2 CLR
04:39 -12.6 °C -17.6 °C 34303.6 hPa Calm     53 % 0 mm 0.0 W/m2 CLR
04:43 -12.6 °C -17.7 °C 34303.6 hPa Calm     53 % 0 mm 0.0 W/m2 CLR
04:49 -12.7 °C -17.7 °C 34303.6 hPa Calm     53 % 0 mm 0.0 W/m2 CLR
04:54 -12.7 °C -17.6 °C 34293.4 hPa Calm     54 % 0 mm 0.0 W/m2 CLR
04:59 -12.7 °C -17.7 °C 34293.4 hPa Calm     54 % 0 mm 0.0 W/m2 CLR
05:04 -12.8 °C -17.7 °C 34293.4 hPa Calm     54 % 0 mm 0.0 W/m2 CLR
05:09 -12.7 °C -17.7 °C 34293.4 hPa Calm     54 % 0 mm 0.0 W/m2 CLR
05:14 -12.7 °C -17.6 °C 34293.4 hPa Calm     54 % 0 mm 0.0 W/m2 CLR
05:19 -12.7 °C -17.6 °C 34293.4 hPa Calm     54 % 0 mm 0.0 W/m2 CLR
05:24 -12.7 °C -17.6 °C 34293.4 hPa Calm     54 % 0 mm 0.0 W/m2 CLR
05:29 -12.7 °C -17.6 °C 34293.4 hPa Calm     54 % 0 mm 0.0 W/m2 CLR
05:34 -12.7 °C -17.6 °C 34293.4 hPa Calm     54 % 0 mm 0.0 W/m2 CLR
05:39 -12.7 °C -17.6 °C 34293.4 hPa Calm     54 % 0 mm 0.0 W/m2 CLR
05:44 -12.7 °C -17.6 °C 34293.4 hPa Calm     54 % 0 mm 0.0 W/m2 CLR
05:49 -12.6 °C -17.6 °C 34293.4 hPa Calm     54 % 0 mm 0.0 W/m2 CLR
05:54 -12.6 °C -17.5 °C 34293.4 hPa Calm     54 % 0 mm 0.0 W/m2 CLR
05:59 -12.7 °C -17.4 °C 34293.4 hPa Calm     55 % 0 mm 0.0 W/m2 CLR
06:04 -12.7 °C -17.4 °C 34293.4 hPa Calm     55 % 0 mm 0.0 W/m2 CLR
06:09 -12.7 °C -17.5 °C 34293.4 hPa Calm     55 % 0 mm 0.0 W/m2 CLR
06:14 -12.8 °C -17.4 °C 34293.4 hPa Calm     56 % 0 mm 0.0 W/m2 CLR
06:19 -12.8 °C -17.4 °C 34279.9 hPa Calm     56 % 0 mm 0.0 W/m2 CLR
06:24 -12.8 °C -17.4 °C 34279.9 hPa Calm     56 % 0 mm 0.0 W/m2 CLR
06:29 -12.8 °C -17.4 °C 34279.9 hPa Calm     56 % 0 mm 0.0 W/m2 CLR
06:34 -12.8 °C -17.4 °C 34279.9 hPa Calm     56 % 0 mm 0.0 W/m2 CLR
06:39 -12.9 °C -17.3 °C 34279.9 hPa Calm     57 % 0 mm 5.0 W/m2 OVC
06:44 -12.9 °C -17.3 °C 34279.9 hPa Calm     58 % 0 mm 5.0 W/m2 OVC
06:49 -13 °C -17.3 °C 34279.9 hPa Calm     58 % 0 mm 7.0 W/m2 OVC
06:54 -13.1 °C -17.3 °C 34279.9 hPa Calm     59 % 0 mm 7.0 W/m2 BKN
06:59 -13.1 °C -17.3 °C 34279.9 hPa Calm     59 % 0 mm 14.0 W/m2 BKN
07:04 -13.1 °C -17.3 °C 34279.9 hPa Calm     59 % 0 mm 19.0 W/m2 BKN
07:09 -13.1 °C -17.3 °C 34279.9 hPa Calm     59 % 0 mm 26.0 W/m2 BKN
07:14 -13.1 °C -17.3 °C 34279.9 hPa Calm     59 % 0 mm 40.0 W/m2 BKN
07:19 -13 °C -17.2 °C 34293.4 hPa Calm     59 % 0 mm 46.0 W/m2 SCT
07:20 -13 °C -17.2 °C 34293.4 hPa Calm     59 % 0 mm 46.0 W/m2 SCT
07:25 -12.9 °C -17.1 °C 34293.4 hPa Calm     59 % 0 mm 49.0 W/m2 SCT
07:30 -12.9 °C -17.1 °C 34293.4 hPa Calm     59 % 0 mm 54.0 W/m2 SCT
07:35 -12.8 °C -17.1 °C 34293.4 hPa Calm     59 % 0 mm 58.0 W/m2 SCT
07:40 -12.8 °C -17.1 °C 34293.4 hPa Calm     58 % 0 mm 65.0 W/m2 SCT
07:45 -12.7 °C -16.9 °C 34293.4 hPa Calm     59 % 0 mm 69.0 W/m2 FEW
07:50 -12.6 °C -16.9 °C 34293.4 hPa Calm     58 % 0 mm 77.0 W/m2 FEW
07:55 -12.4 °C -17 °C 34293.4 hPa Calm     57 % 0 mm 90.0 W/m2 FEW
08:00 -12.3 °C -17 °C 34293.4 hPa Calm     56 % 0 mm 100.0 W/m2 CLR
08:05 -12.2 °C -16.9 °C 34293.4 hPa Calm     56 % 0 mm 111.0 W/m2 CLR
08:10 -12.1 °C -16.7 °C 34279.9 hPa Calm     56 % 0 mm 132.0 W/m2 CLR
08:15 -11.8 °C -16.8 °C 34279.9 hPa Calm     54 % 0 mm 148.0 W/m2 CLR
08:20 -11.6 °C -16.5 °C 34279.9 hPa Calm     55 % 0 mm 149.0 W/m2 CLR
08:25 -11.5 °C -16.6 °C 34279.9 hPa Calm     53 % 0 mm 162.0 W/m2 CLR
08:30 -11.3 °C -16.5 °C 34279.9 hPa Calm     53 % 0 mm 141.0 W/m2 CLR
08:35 -11.2 °C -16.5 °C 34279.9 hPa Calm     52 % 0 mm 211.0 W/m2 CLR
08:40 -11 °C -16.5 °C 34269.7 hPa Calm     51 % 0 mm 216.0 W/m2 CLR
08:45 -10.8 °C -16.5 °C 34269.7 hPa Calm     50 % 0 mm 172.0 W/m2 CLR
08:50 -10.7 °C -16.4 °C 34269.7 hPa Calm     49 % 0 mm 253.0 W/m2 CLR
08:55 -10.4 °C -16.3 °C 34269.7 hPa Calm     49 % 0 mm 283.0 W/m2 CLR
09:00 -10.2 °C -16.2 °C 34269.7 hPa Calm     48 % 0 mm 318.0 W/m2 CLR
09:05 -9.8 °C -15.9 °C 34269.7 hPa Calm     48 % 0 mm 369.0 W/m2 CLR
09:10 -9.5 °C -16.1 °C 34269.7 hPa Calm     45 % 0 mm 383.0 W/m2 CLR
09:15 -9.3 °C -16.1 °C 34269.7 hPa Calm     44 % 0 mm 309.0 W/m2 CLR
09:20 -9.2 °C -15.9 °C 34269.7 hPa Calm     44 % 0 mm 394.0 W/m2 CLR
09:25 -9.1 °C -16 °C 34269.7 hPa Calm     43 % 0 mm 332.0 W/m2 CLR
09:30 -8.8 °C -15.9 °C 34256.2 hPa Calm     43 % 0 mm 373.0 W/m2 CLR
09:35 -8.7 °C -15.7 °C 34269.7 hPa Calm     43 % 0 mm 258.0 W/m2 CLR
09:40 -8.4 °C -15.4 °C 34256.2 hPa Calm     43 % 0 mm 383.0 W/m2 CLR
09:45 -8.2 °C -15.2 °C 34256.2 hPa Calm     43 % 0 mm 380.0 W/m2 CLR
09:50 -8 °C -14.9 °C 34256.2 hPa Calm     44 % 0 mm 373.0 W/m2 CLR
09:55 -7.8 °C -15.1 °C 34256.2 hPa Calm     42 % 0 mm 350.0 W/m2 CLR
10:00 -7.7 °C -15.3 °C 34256.2 hPa Calm     40 % 0 mm 339.0 W/m2 CLR
10:05 -7.6 °C -15.3 °C 34256.2 hPa Calm     40 % 0 mm 383.0 W/m2 CLR
10:10 -7.6 °C -15.3 °C 34256.2 hPa Calm     40 % 0 mm 394.0 W/m2 CLR
10:15 -7.6 °C -15.3 °C 34246 hPa Calm     40 % 0 mm 408.0 W/m2 CLR
10:20 -7.6 °C -14.9 °C 34246 hPa Calm     42 % 0 mm 390.0 W/m2 CLR
10:25 -7.6 °C -15.1 °C 34246 hPa NE 9 km/h 9 km/h 41 % 0 mm 424.0 W/m2 CLR
10:26 -7.6 °C -15.1 °C 34246 hPa NE 6 km/h 6 km/h 41 % 0 mm 424.0 W/m2 CLR
10:31 -7.6 °C -14.8 °C 34235.8 hPa ENE 9 km/h 9 km/h 42 % 0 mm 469.0 W/m2 CLR
10:36 -7.4 °C -14.2 °C 34235.8 hPa NE 9 km/h 9 km/h 45 % 0 mm 394.0 W/m2 CLR
10:41 -7.4 °C -14 °C 34235.8 hPa ENE 9 km/h 9 km/h 46 % 0 mm 519.0 W/m2 CLR
10:46 -7.4 °C -13.8 °C 34235.8 hPa ENE 15 km/h 15 km/h 47 % 0 mm 487.0 W/m2 CLR
10:51 -7.3 °C -13.7 °C 34235.8 hPa NE 15 km/h 15 km/h 47 % 0 mm 461.0 W/m2 CLR
10:52 -7.3 °C -13.7 °C 34235.8 hPa NNE 11.9 km/h 11.9 km/h 47 % 0 mm 471.0 W/m2 CLR
10:57 -7.3 °C -13.7 °C 34235.8 hPa NE 18.2 km/h 18.2 km/h 47 % 0 mm 559.0 W/m2 CLR
11:02 -7.3 °C -13.7 °C 34222.3 hPa NE 15 km/h 15 km/h 47 % 0 mm 496.0 W/m2 CLR
11:07 -7.2 °C -13.8 °C 34222.3 hPa NE 17.9 km/h 17.9 km/h 46 % 0 mm 485.0 W/m2 CLR
11:12 -7.1 °C -13.9 °C 34222.3 hPa NE 18.2 km/h 18.2 km/h 45 % 0 mm 439.0 W/m2 CLR
11:17 -7 °C -13.7 °C 34222.3 hPa NE 11.9 km/h 11.9 km/h 46 % 0 mm 668.0 W/m2 CLR
11:22 -6.9 °C -13.7 °C 34212.1 hPa NE 15 km/h 15 km/h 45 % 0 mm 536.0 W/m2 CLR
11:27 -6.8 °C -13.6 °C 34212.1 hPa NNE 12.9 km/h 12.9 km/h 45 % 0 mm 680.0 W/m2 CLR
11:32 -6.6 °C -13.4 °C 34212.1 hPa NNE 20.9 km/h 20.9 km/h 45 % 0 mm 726.0 W/m2 CLR
11:37 -6.4 °C -13.4 °C 34212.1 hPa NE 17.9 km/h 17.9 km/h 44 % 0 mm 791.0 W/m2 CLR
11:42 -6.3 °C -13.3 °C 34212.1 hPa NE 15 km/h 15 km/h 44 % 0 mm 814.0 W/m2 CLR
11:47 -6.2 °C -13.4 °C 34212.1 hPa NE 20.9 km/h 20.9 km/h 43 % 0 mm 800.0 W/m2 CLR
11:52 -6.1 °C -13.6 °C 34198.6 hPa NE 15 km/h 15 km/h 42 % 0 mm 856.0 W/m2 CLR
11:57 -6 °C -13.5 °C 34198.6 hPa North 23.8 km/h 23.8 km/h 42 % 0 mm 846.0 W/m2 CLR
12:02 -5.9 °C -13.4 °C 34198.6 hPa NE 18.2 km/h 18.3 km/h 42 % 0 mm 831.0 W/m2 CLR
12:07 -5.8 °C -13.1 °C 34198.6 hPa NNE 15.6 km/h 15.6 km/h 43 % 0 mm 805.0 W/m2 CLR
12:13 -5.8 °C -13.2 °C 34198.6 hPa NNE 18.2 km/h 18.2 km/h 42 % 0 mm 766.0 W/m2 CLR
12:18 -5.8 °C -13.4 °C 34188.4 hPa NNE 20.8 km/h 20.8 km/h 41 % 0 mm 710.0 W/m2 CLR
12:23 -5.6 °C -13.5 °C 34198.6 hPa NNE 17.9 km/h 17.9 km/h 40 % 0 mm 701.0 W/m2 CLR
12:28 -5.5 °C -13 °C 34188.4 hPa NNE 11.9 km/h 11.9 km/h 42 % 0 mm 759.0 W/m2 CLR
12:33 -5.4 °C -12.7 °C 34188.4 hPa ENE 18.2 km/h 18.2 km/h 43 % 0 mm 714.0 W/m2 CLR
12:38 -5.3 °C -12.4 °C 34178.3 hPa ENE 23.8 km/h 23.8 km/h 44 % 0 mm 886.0 W/m2 CLR
12:43 -5.2 °C -12 °C 34178.3 hPa ENE 33.6 km/h 33.6 km/h 46 % 0 mm 944.0 W/m2 CLR
12:48 -5 °C -12.2 °C 34164.7 hPa ENE 11.9 km/h 11.9 km/h 44 % 0 mm 918.0 W/m2 CLR
12:53 -5.1 °C -12.8 °C 34164.7 hPa ENE 17.9 km/h 17.9 km/h 41 % 0 mm 833.0 W/m2 CLR
12:58 -5 °C -13.2 °C 34164.7 hPa NE 29.8 km/h 29.8 km/h 39 % 0 mm 977.0 W/m2 CLR
13:03 -4.9 °C -13.5 °C 34164.7 hPa ENE 17.9 km/h 17.9 km/h 37 % 0 mm 851.0 W/m2 CLR
13:08 -4.9 °C -13.5 °C 34154.6 hPa East 23.8 km/h 23.8 km/h 37 % 0 mm 847.0 W/m2 CLR
13:13 -4.9 °C -12.7 °C 34154.6 hPa ESE 26.9 km/h 26.9 km/h 41 % 0 mm 962.0 W/m2 CLR
13:18 -4.9 °C -13.3 °C 34154.6 hPa East 20.8 km/h 20.8 km/h 38 % 0 mm 1074.0 W/m2 CLR
13:23 -4.8 °C -12.9 °C 34154.6 hPa NNE 17.9 km/h 17.9 km/h 39 % 0 mm 800.0 W/m2 CLR
13:28 -4.6 °C -12.8 °C 34154.6 hPa ENE 11.9 km/h 11.9 km/h 39 % 0 mm 777.0 W/m2 CLR
13:33 -4.5 °C -12.7 °C 34144.4 hPa ENE 12.9 km/h 12.9 km/h 39 % 0 mm 930.0 W/m2 CLR
13:38 -4.4 °C -12.2 °C 34144.4 hPa ENE 20.9 km/h 20.9 km/h 41 % 0 mm 923.0 W/m2 CLR
13:43 -4.5 °C -12.1 °C 34144.4 hPa ESE 11.9 km/h 11.9 km/h 42 % 0 mm 923.0 W/m2 CLR
13:48 -4.6 °C -12.1 °C 34130.9 hPa ESE 20.9 km/h 20.9 km/h 42 % 0 mm 921.0 W/m2 CLR
13:53 -4.5 °C -12.3 °C 34130.9 hPa East 9 km/h 9 km/h 41 % 0 mm 918.0 W/m2 CLR
13:58 -4.4 °C -12.1 °C 34130.9 hPa ENE 23.8 km/h 23.8 km/h 42 % 0 mm 919.0 W/m2 CLR
14:03 -4.3 °C -11.7 °C 34130.9 hPa NE 29.8 km/h 29.8 km/h 43 % 0 mm 919.0 W/m2 CLR
14:08 -4.2 °C -11.7 °C 34120.7 hPa NE 17.9 km/h 17.9 km/h 43 % 0 mm 928.0 W/m2 CLR
14:13 -4.1 °C -12 °C 34120.7 hPa NE 31.1 km/h 31.1 km/h 41 % 0 mm 844.0 W/m2 CLR
14:18 -4.2 °C -12.1 °C 34120.7 hPa NE 17.9 km/h 17.9 km/h 41 % 0 mm 846.0 W/m2 CLR
14:23 -4.1 °C -12.1 °C 34120.7 hPa East 15.6 km/h 15.6 km/h 40 % 0 mm 935.0 W/m2 CLR
14:28 -4.1 °C -11.9 °C 34107.2 hPa NNE 23.8 km/h 23.8 km/h 41 % 0 mm 939.0 W/m2 CLR
14:33 -4.1 °C -11.9 °C 34107.2 hPa NNE 20.9 km/h 20.9 km/h 41 % 0 mm 928.0 W/m2 CLR
14:38 -4 °C -11.8 °C 34107.2 hPa NNE 20.9 km/h 20.9 km/h 41 % 0 mm 956.0 W/m2 CLR
14:43 -4.1 °C -11.3 °C 34107.2 hPa NE 17.9 km/h 17.9 km/h 44 % 0 mm 232.0 W/m2 CLR
14:48 -4.2 °C -11.2 °C 34107.2 hPa East 20.9 km/h 20.9 km/h 45 % 0 mm 940.0 W/m2 CLR
14:53 -4.2 °C -11.3 °C 34097 hPa ESE 23.3 km/h 23.3 km/h 45 % 0 mm 905.0 W/m2 CLR
14:58 -4.3 °C -11 °C 34097 hPa East 26.9 km/h 26.9 km/h 47 % 0 mm 904.0 W/m2 CLR
15:03 -4.2 °C -10.9 °C 34086.9 hPa ENE 28.5 km/h 28.5 km/h 47 % 0 mm 905.0 W/m2 CLR
15:08 -4.2 °C -10.9 °C 34086.9 hPa East 17.9 km/h 17.9 km/h 47 % 0 mm 863.0 W/m2 CLR
15:13 -4 °C -10.7 °C 34073.3 hPa East 20.9 km/h 20.9 km/h 47 % 0 mm 860.0 W/m2 CLR
15:18 -3.9 °C -10.5 °C 34073.3 hPa East 26.9 km/h 26.9 km/h 48 % 0 mm 856.0 W/m2 CLR
15:23 -3.9 °C -10.5 °C 34073.3 hPa ENE 20.9 km/h 20.9 km/h 48 % 0 mm 842.0 W/m2 CLR
15:28 -4 °C -10.3 °C 34063.2 hPa ESE 32.8 km/h 32.8 km/h 49 % 0 mm 842.0 W/m2 CLR
15:33 -4 °C -10.3 °C 34049.6 hPa East 32.8 km/h 32.8 km/h 49 % 0 mm 831.0 W/m2 CLR
15:38 -4.2 °C -10.3 °C 34049.6 hPa ESE 32.8 km/h 32.8 km/h 50 % 0 mm 823.0 W/m2 CLR
15:43 -4.2 °C -10.4 °C 34049.6 hPa ESE 26.9 km/h 26.9 km/h 50 % 0 mm 817.0 W/m2 CLR
15:48 -4.3 °C -10.4 °C 34049.6 hPa East 29.8 km/h 29.8 km/h 50 % 0 mm 816.0 W/m2 CLR
15:53 -4.2 °C -10.4 °C 34039.5 hPa ESE 26.9 km/h 26.9 km/h 50 % 0 mm 803.0 W/m2 CLR
15:58 -4.2 °C -10.4 °C 34039.5 hPa ENE 29.8 km/h 29.8 km/h 50 % 0 mm 791.0 W/m2 CLR
16:03 -4.1 °C -10.3 °C 34039.5 hPa ESE 23.8 km/h 23.8 km/h 50 % 0 mm 788.0 W/m2 CLR
16:08 -4.1 °C -10.3 °C 34039.5 hPa ENE 26.9 km/h 26.9 km/h 50 % 0 mm 779.0 W/m2 CLR
16:13 -4.2 °C -10.6 °C 34039.5 hPa ESE 25.9 km/h 25.9 km/h 49 % 0 mm 773.0 W/m2 CLR
16:18 -4.2 °C -10.2 °C 34039.5 hPa SE 23.8 km/h 23.8 km/h 51 % 0 mm 726.0 W/m2 CLR
16:23 -4.2 °C -10.2 °C 34039.5 hPa East 29.8 km/h 29.8 km/h 51 % 0 mm 749.0 W/m2 CLR
16:28 -4.2 °C -10.4 °C 34029.3 hPa ESE 31.1 km/h 31.1 km/h 50 % 0 mm 761.0 W/m2 CLR
16:33 -4.3 °C -10.2 °C 34029.3 hPa SE 32.8 km/h 32.8 km/h 51 % 0 mm 754.0 W/m2 CLR
16:38 -4.3 °C -10.3 °C 34015.8 hPa ESE 38.8 km/h 38.8 km/h 51 % 0 mm 742.0 W/m2 CLR
16:43 -4.4 °C -10.4 °C 34015.8 hPa East 32.8 km/h 32.8 km/h 51 % 0 mm 554.0 W/m2 CLR
16:48 -4.6 °C -10.4 °C 34015.8 hPa East 28.5 km/h 28.5 km/h 52 % 0 mm 251.0 W/m2 CLR
16:53 -4.8 °C -10.3 °C 34015.8 hPa ENE 29.8 km/h 29.8 km/h 54 % 0 mm 304.0 W/m2 CLR
16:58 -4.7 °C -10.3 °C 34015.8 hPa ESE 26.9 km/h 26.9 km/h 53 % 0 mm 294.0 W/m2 CLR
17:03 -4.8 °C -10.4 °C 34015.8 hPa ESE 31.1 km/h 31.1 km/h 53 % 0 mm 577.0 W/m2 CLR
17:08 -4.7 °C -10.3 °C 34005.6 hPa ESE 29.8 km/h 29.8 km/h 53 % 0 mm 766.0 W/m2 CLR
17:13 -4.7 °C -10.3 °C 34005.6 hPa East 26.9 km/h 26.9 km/h 53 % 0 mm 151.0 W/m2 CLR
17:18 -4.7 °C -10.7 °C 34005.6 hPa ESE 23.8 km/h 23.8 km/h 51 % 0 mm 146.0 W/m2 CLR
17:23 -4.8 °C -10.9 °C 34005.6 hPa ESE 29.8 km/h 29.8 km/h 50 % 0 mm 134.0 W/m2 CLR
17:28 -4.8 °C -10.8 °C 34005.6 hPa ESE 29.8 km/h 29.8 km/h 51 % 0 mm 105.0 W/m2 CLR
17:33 -4.9 °C -10.8 °C 34005.6 hPa ESE 26.9 km/h 26.9 km/h 51 % 0 mm 86.0 W/m2 CLR
17:38 -5.1 °C -10.8 °C 34005.6 hPa ESE 29.8 km/h 29.8 km/h 52 % 0 mm 65.0 W/m2 CLR
17:43 -5.2 °C -10.9 °C 34005.6 hPa East 29.8 km/h 29.8 km/h 52 % 0 mm 42.0 W/m2 FEW
17:48 -5.3 °C -10.9 °C 34005.6 hPa East 29.8 km/h 29.8 km/h 53 % 0 mm 30.0 W/m2 SCT
17:53 -5.4 °C -10.8 °C 34005.6 hPa ESE 20.8 km/h 20.8 km/h 54 % 0 mm 19.0 W/m2 BKN
17:58 -5.5 °C -10.9 °C 34005.6 hPa East 29.8 km/h 29.8 km/h 54 % 0 mm 14.0 W/m2 BKN
18:03 -5.6 °C -11 °C 34005.6 hPa ESE 26.9 km/h 26.9 km/h 54 % 0 mm 11.0 W/m2 BKN
18:08 -5.7 °C -11 °C 34015.8 hPa SE 29.8 km/h 29.8 km/h 55 % 0 mm 9.0 W/m2 BKN
18:13 -5.8 °C -10.9 °C 34015.8 hPa SE 23.8 km/h 23.8 km/h 56 % 0 mm 7.0 W/m2 BKN
18:18 -5.9 °C -10.8 °C 34029.3 hPa SSE 29.8 km/h 29.8 km/h 57 % 0 mm 5.0 W/m2 BKN
18:23 -6.1 °C -10.4 °C 34029.3 hPa SSE 17.9 km/h 17.9 km/h 61 % 0 mm 5.0 W/m2 BKN
18:29 -6.3 °C -10.7 °C 34029.3 hPa SSE 29.8 km/h 29.8 km/h 61 % 0 mm 5.0 W/m2 OVC
18:34 -6.6 °C -10.3 °C 34039.5 hPa SSE 15 km/h 16.3 km/h 65 % 0 mm 0.0 W/m2 OVC
18:39 -6.8 °C -10.3 °C 34039.5 hPa SSE 33.6 km/h 33.6 km/h 67 % 7.62 mm 0.0 W/m2 RA
18:44 -7.1 °C -10.4 °C 34029.3 hPa SSE 38.8 km/h 38.8 km/h 68 % 12.7 mm 0.0 W/m2 RA
18:49 -7.3 °C -10.3 °C 34029.3 hPa SSE 38.8 km/h 39.4 km/h 71 % 12.7 mm 0.0 W/m2 RA
18:54 -7.5 °C -10.4 °C 34015.8 hPa SE 53.6 km/h 53.6 km/h 71 % 12.7 mm 0.0 W/m2 OVC
18:59 -7.7 °C -10.3 °C 34015.8 hPa SSE 65.5 km/h 65.5 km/h 74 % 12.7 mm 0.0 W/m2 OVC
19:04 -7.8 °C -10.3 °C 34005.6 hPa SSE 71.5 km/h 71.5 km/h 75 % 20.32 mm 5.0 W/m2 RA
19:09 -7.9 °C -10.2 °C 34005.6 hPa South 50.7 km/h 50.7 km/h 77 % 20.32 mm 5.0 W/m2 OVC
19:14 -7.9 °C -10.2 °C 34005.6 hPa SSE 56.6 km/h 56.6 km/h 77 % 20.32 mm 7.0 W/m2 BKN
19:19 -8.1 °C -10.2 °C 33992.1 hPa SSE 50.7 km/h 50.7 km/h 79 % 20.32 mm 9.0 W/m2 BKN
19:24 -8.1 °C -10.1 °C 33981.9 hPa SE 41.7 km/h 41.7 km/h 80 % 20.32 mm 14.0 W/m2 BKN
19:29 -8 °C -10.1 °C 33981.9 hPa SE 23.8 km/h 23.8 km/h 79 % 20.32 mm 32.0 W/m2 BKN
19:34 -8 °C -10.1 °C 33992.1 hPa WNW 6 km/h   79 % 12.7 mm 42.0 W/m2 BKN
19:39 -8 °C -10.1 °C 34005.6 hPa West 9 km/h 9 km/h 79 % 12.7 mm 35.0 W/m2 BKN
19:44 -8 °C -10.1 °C 34005.6 hPa South 41.7 km/h 41.7 km/h 79 % 12.7 mm 26.0 W/m2 BKN
19:49 -8.2 °C -10.1 °C 34005.6 hPa South 10.3 km/h 10.3 km/h 80 % 7.62 mm 25.0 W/m2 BKN
19:54 -8.3 °C -10.1 °C 34005.6 hPa South 29.8 km/h 29.8 km/h 81 % 7.62 mm 21.0 W/m2 BKN
19:59 -8.3 °C -10.1 °C 34005.6 hPa SSE 17.9 km/h 17.9 km/h 81 % 7.62 mm 18.0 W/m2 BKN
20:04 -8.2 °C -10.2 °C 34015.8 hPa South 32.8 km/h 32.8 km/h 80 % 0 mm 47.0 W/m2 SCT
20:09 -8.1 °C -10.1 °C 34015.8 hPa SSE 35.7 km/h 35.7 km/h 80 % 0 mm 49.0 W/m2 SCT
20:14 -8.1 °C -10.1 °C 34005.6 hPa South 32.8 km/h 32.8 km/h 79 % 0 mm 51.0 W/m2 SCT
20:19 -8.1 °C -10.1 °C 34005.6 hPa SSW 32.8 km/h 32.8 km/h 79 % 0 mm 54.0 W/m2 SCT
20:24 -8.1 °C -10.1 °C 34005.6 hPa South 31.1 km/h 31.1 km/h 80 % 0 mm 44.0 W/m2 BKN
20:29 -8.2 °C -10 °C 34005.6 hPa South 29.8 km/h 29.8 km/h 81 % 0 mm 16.0 W/m2 BKN
20:34 -8.2 °C -10.1 °C 34005.6 hPa SSE 35.7 km/h 35.7 km/h 81 % 0 mm 5.0 W/m2 BKN
20:39 -8.2 °C -10.1 °C 34005.6 hPa South 32.8 km/h 32.8 km/h 81 % 0 mm 0.0 W/m2 OVC
20:44 -8.1 °C -10.1 °C 34015.8 hPa SSW 11.9 km/h 11.9 km/h 79 % 0 mm 0.0 W/m2 OVC
20:49 -7.9 °C -10.1 °C 34015.8 hPa SE 20.9 km/h 20.9 km/h 78 % 0 mm 0.0 W/m2 OVC
20:54 -7.9 °C -10.2 °C 34015.8 hPa NNE 9 km/h   77 % 0 mm 0.0 W/m2 OVC
20:59 -7.8 °C -10.1 °C 34029.3 hPa South 15 km/h 15 km/h 77 % 0 mm 0.0 W/m2 OVC
21:04 -7.8 °C -10.1 °C 34029.3 hPa SSE 2.6 km/h   77 % 0 mm 0.0 W/m2 OVC
21:09 -7.8 °C -9.9 °C 34015.8 hPa SE 26.9 km/h 26.9 km/h 78 % 7.62 mm 0.0 W/m2 RA
21:14 -7.9 °C -9.9 °C 34015.8 hPa South 32.8 km/h 32.8 km/h 79 % 7.62 mm 0.0 W/m2
21:19 -8.2 °C -9.9 °C 34005.6 hPa South 29.8 km/h 29.8 km/h 81 % 7.62 mm 0.0 W/m2 CLR
21:24 -8.2 °C -10.1 °C 34005.6 hPa SSE 38.8 km/h 38.8 km/h 81 % 7.62 mm 0.0 W/m2 CLR
21:29 -8.2 °C -10.1 °C 34005.6 hPa South 32.8 km/h 32.8 km/h 81 % 7.62 mm 0.0 W/m2 CLR
21:34 -8.2 °C -10.1 °C 34015.8 hPa South 15 km/h 15 km/h 81 % 7.62 mm 0.0 W/m2 CLR
21:39 -8.3 °C -10.1 °C 34015.8 hPa SSE 9 km/h   82 % 7.62 mm 0.0 W/m2 CLR
21:44 -8.4 °C -10.1 °C 34029.3 hPa ENE 3.1 km/h 5 km/h 82 % 7.62 mm 0.0 W/m2 CLR
21:49 -8.4 °C -10.2 °C 34029.3 hPa SE 17.9 km/h 17.9 km/h 82 % 7.62 mm 0.0 W/m2 CLR
21:54 -8.4 °C -10.2 °C 34039.5 hPa East 10.3 km/h 10.3 km/h 82 % 7.62 mm 0.0 W/m2 CLR
21:59 -8.4 °C -10.1 °C 34039.5 hPa Calm     82 % 7.62 mm 0.0 W/m2 CLR
22:04 -8.4 °C -10.2 °C 34063.2 hPa Calm     81 % 7.62 mm 0.0 W/m2 CLR
22:09 -8.3 °C -10.3 °C 34063.2 hPa Calm     80 % 0 mm 0.0 W/m2 CLR
22:14 -8.3 °C -10.2 °C 34063.2 hPa NNE 15 km/h 15 km/h 80 % 0 mm 0.0 W/m2 CLR
22:19 -8.3 °C -10.2 °C 34063.2 hPa North 15 km/h 15 km/h 81 % 0 mm 0.0 W/m2 CLR
22:24 -8.3 °C -10.3 °C 34073.3 hPa ENE 9 km/h 9 km/h 79 % 0 mm 0.0 W/m2 CLR
22:29 -8.2 °C -10.3 °C 34073.3 hPa ESE 9 km/h 9 km/h 78 % 0 mm 0.0 W/m2 CLR
22:34 -8.2 °C -10.2 °C 34063.2 hPa ESE 10.3 km/h 10.3 km/h 80 % 0 mm 0.0 W/m2 CLR
22:39 -8.3 °C -10.2 °C 34086.9 hPa Calm     81 % 7.62 mm 0.0 W/m2 RA
22:44 -8.4 °C -10.2 °C 34086.9 hPa Calm     82 % 7.62 mm 0.0 W/m2 CLR
22:49 -8.6 °C -10.2 °C 34097 hPa North 12.9 km/h 12.9 km/h 83 % 7.62 mm 0.0 W/m2 CLR
22:54 -8.7 °C -10.1 °C 34107.2 hPa NNE 20.9 km/h 20.9 km/h 85 % 7.62 mm 0.0 W/m2 CLR
23:00 -8.8 °C -10.1 °C 34097 hPa NE 17.9 km/h 17.9 km/h 86 % 7.62 mm 0.0 W/m2 CLR
23:01 -8.8 °C -10.1 °C 34097 hPa ENE 15 km/h 15 km/h 86 % 7.62 mm 0.0 W/m2 CLR
23:06 -8.8 °C -10.2 °C 34097 hPa ENE 5.1 km/h 5.1 km/h 86 % 7.62 mm 0.0 W/m2 CLR
23:11 -8.9 °C -10.2 °C 34086.9 hPa ENE 26.9 km/h 26.9 km/h 86 % 7.62 mm 0.0 W/m2 CLR
23:16 -9 °C -10.2 °C 34086.9 hPa ENE 6 km/h   87 % 7.62 mm 0.0 W/m2 CLR
23:21 -9.1 °C -10.2 °C 34086.9 hPa ENE 3.1 km/h   87 % 7.62 mm 0.0 W/m2 CLR
23:26 -9.1 °C -10.3 °C 34086.9 hPa Calm     87 % 7.62 mm 0.0 W/m2 CLR
23:31 -9.2 °C -10.3 °C 34086.9 hPa NE 3.1 km/h 3.1 km/h 88 % 7.62 mm 0.0 W/m2 CLR
23:36 -9.3 °C -10.4 °C 34097 hPa ENE 15 km/h 15 km/h 88 % 0 mm 0.0 W/m2 CLR
23:41 -9.3 °C -10.4 °C 34097 hPa Calm     88 % 0 mm 0.0 W/m2 CLR
23:46 -9.4 °C -10.5 °C 34097 hPa ENE 11.9 km/h 11.9 km/h 88 % 0 mm 0.0 W/m2 CLR
23:51 -9.4 °C -10.4 °C 34097 hPa Calm     89 % 0 mm 0.0 W/m2 CLR
23:57 -9.4 °C -10.4 °C 34097 hPa NE 18.2 km/h 18.2 km/h 89 % 0 mm 0.0 W/m2 CLR
Lo Temps de Massalio
Compliments of Weather Underground - 1.25 mb